sat.trackr.live / text

‹ back to catalog

LUSAT (LO-19)

NORAD 20442 · 1990-005G

PAYLOAD ACTIVE UNKNOWN

§ Identity

Operator
Country
ARGN
Launch date
1990-01-22
Launch site
FRGUI
Launch vehicle
Mass (kg)
RCS (m²)
0.15

Purposes: comms

External: N2YO · Heavens-Above · Gunter

§ Orbital elements

Epoch: 2026-05-25T00:26:55.571136Z

Period
100.41 min
Inclination
98.8861°
Eccentricity
0.0010428
Mean motion
14.34114908 rev/d
Perigee alt
770.5 km
Apogee alt
785.5 km
Semi-major
7,156.1 km
B*
5.1069e-5
RAAN
166.1848°
Arg perigee
274.7222°
Mean anomaly
85.2770°
Rev number
89,907

§ Raw data

LUSAT (LO-19)1 20442U 90005G   26145.01869874  .00000096  00000+0  51069-4 0  99962 20442  98.8861 166.1848 0010428 274.7222  85.2770 14.34114908899076

JSON: /api/v1/satellites/20442 · /tle

For live sub-satellite position, see the globe view (requires WebGL).

§ Visibility from observer

Set your observer location to see the next 7 days of passes ≥ 10°. The values pass through the URL so the page stays shareable.

No JS? Fill the form by hand. The geolocation button needs JavaScript.

§ Radio — SatNOGS DB

ModeDescriptionDownlinkUplink
BPSK BPSK 1k2 Transceiver 437.150 MHz 145.840 MHz
Carrier 435.078 MHz
CW Mode U TLM 437.125 MHz

3 transmitters · refreshed weekly from db.satnogs.org